NK7E-2 Weather Reports


time (UTC)temp
C
wind
direction
speed
KPH
gust
KPH
rain 1hr
cm
rain 24hr
cm
rain mn
cm
humidity
%
barometer
mb
20260506081517 12 68 3.2 3.2 0.00 0.30 0.00 56 1020.0
20260506080517 12 68 1.6 3.2 0.00 0.30 0.00 55 1020.1
20260506073517 12 0.0 0.0 0.00 0.36 0.00 55 1020.0
20260506072517 12 0.0 1.6 0.00 0.36 0.00 53 1020.0
20260506071517 13 68 1.6 3.2 0.00 0.36 0.00 52 1020.5
20260506070517 13 68 1.6 1.6 0.00 0.36 0.00 52 1020.1
20260506062517 14 0.0 1.6 0.00 0.46 0.36 53 1019.9
20260506061517 15 0 1.6 3.2 0.00 0.46 0.36 45 1020.2
20260506060517 15 0.0 0.0 0.00 0.46 0.36 45 1020.1
20260506050517 16 0.0 1.6 0.00 0.48 0.36 41 1019.4
20260506044517 16 0.0 6.4 0.00 0.48 0.36 41 1019.1
20260506043517 16 68 1.6 6.4 0.00 0.48 0.36 40 1019.2
20260506042517 16 68 3.2 9.7 0.00 0.48 0.36 40 1019.0
20260506041517 16 90 3.2 8.0 0.00 0.48 0.36 40 1018.8
20260506040517 16 270 1.6 4.8 0.00 0.48 0.36 40 1018.6
20260506035517 17 113 1.6 6.4 0.00 0.51 0.36 41 1018.5
20260506034517 17 338 3.2 8.0 0.00 0.51 0.36 40 1018.3
20260506033517 17 293 1.6 6.4 0.00 0.51 0.36 40 1018.3
20260506032517 17 270 1.6 9.7 0.00 0.51 0.36 39 1018.2
20260506031517 17 293 4.8 11.3 0.00 0.51 0.36 39 1018.3
20260506030517 18 270 9.7 16.1 0.00 0.51 0.36 36 1017.9
20260506025517 18 270 6.4 12.9 0.00 0.64 0.36 35 1017.7
20260506024517 18 270 8.0 14.5 0.00 0.64 0.36 36 1017.5
20260506023517 18 270 8.0 16.1 0.00 0.64 0.36 36 1017.5
20260506022516 18 270 9.7 16.1 0.00 0.64 0.36 36 1016.8
20260506021516 18 270 9.7 19.3 0.00 0.64 0.36 36 1017.0
20260506020517 18 270 8.0 16.1 0.00 0.64 0.36 36 1016.8
20260506015516 19 270 12.9 22.5 0.00 0.66 0.36 36 1016.4
20260506014516 19 270 12.9 19.3 0.00 0.66 0.36 36 1016.6
20260506013516 20 270 14.5 22.5 0.00 0.66 0.36 34 1016.6
20260506012516 20 270 12.9 20.9 0.00 0.66 0.36 33 1016.6
20260506011516 21 270 14.5 22.5 0.00 0.66 0.36 31 1016.5
20260506010516 21 270 16.1 22.5 0.00 0.66 0.36 28 1016.4
20260506005516 21 248 14.5 20.9 0.00 0.66 0.36 28 1016.5
20260506004516 21 248 16.1 22.5 0.00 0.66 0.36 29 1016.4
20260506003516 21 270 14.5 22.5 0.00 0.66 0.36 30 1016.4
20260506002516 21 248 17.7 25.7 0.00 0.66 0.36 29 1016.3
20260506001516 21 270 16.1 29.0 0.00 0.66 0.36 29 1016.3
20260506000516 21 248 14.5 25.7 0.00 0.66 0.36 28 1016.6
20260505235516 22 248 16.1 29.0 0.00 0.66 0.36 28 1016.6
20260505234516 21 248 16.1 29.0 0.00 0.66 0.36 27 1016.6
20260505233516 22 248 14.5 25.7 0.00 0.66 0.36 26 1016.8
20260505232516 22 248 19.3 38.6 0.00 0.66 0.36 25 1016.5
20260505231516 22 248 20.9 37.0 0.00 0.66 0.36 25 1016.9
20260505230516 22 270 20.9 32.2 0.00 0.66 0.36 24 1016.6
20260505225516 22 270 19.3 33.8 0.00 0.66 0.36 25 1016.4
20260505224516 22 248 20.9 33.8 0.00 0.66 0.36 31 1016.4
20260505223516 22 270 17.7 33.8 0.00 0.66 0.36 32 1016.4
20260505222516 22 248 22.5 40.2 0.00 0.66 0.36 31 1016.8
20260505221516 22 248 22.5 37.0 0.00 0.66 0.36 33 1017.0
20260505220516 22 248 17.7 30.6 0.00 0.66 0.36 34 1016.8
20260505215516 22 248 17.7 29.0 0.00 0.66 0.36 34 1017.0
20260505214516 22 248 20.9 33.8 0.00 0.66 0.36 35 1017.1
20260505213516 22 225 14.5 22.5 0.00 0.66 0.36 38 1017.2
20260505212516 22 248 20.9 32.2 0.00 0.66 0.36 36 1017.4
20260505211516 22 248 16.1 27.4 0.00 0.66 0.36 35 1017.3
20260505210516 22 248 11.3 22.5 0.00 0.66 0.36 37 1017.2
20260505205516 22 225 12.9 30.6 0.00 0.66 0.36 34 1017.3
20260505204516 21 248 12.9 27.4 0.00 0.66 0.36 37 1017.6
20260505203516 21 225 14.5 33.8 0.00 0.66 0.36 38 1017.6
20260505202516 21 270 14.5 25.7 0.00 0.66 0.36 40 1017.6
20260505201516 21 270 20.9 41.8 0.00 0.66 0.36 40 1018.1
20260505200516 21 225 14.5 25.7 0.00 0.66 0.36 39 1018.0
20260505195516 21 248 20.9 32.2 0.00 0.66 0.36 42 1017.9
20260505194516 21 270 16.1 29.0 0.00 0.66 0.36 43 1018.0
20260505193516 21 248 14.5 29.0 0.00 0.66 0.36 44 1018.0
20260505192516 21 248 16.1 27.4 0.00 0.66 0.36 41 1018.0
20260505191516 21 225 12.9 22.5 0.00 0.66 0.36 44 1018.1
20260505190516 20 248 19.3 38.6 0.00 0.66 0.36 47 1018.4
20260505185516 20 248 16.1 27.4 0.00 0.66 0.36 48 1018.2
20260505184516 20 248 17.7 30.6 0.00 0.66 0.36 48 1018.4
20260505183516 20 248 9.7 24.1 0.00 0.66 0.36 47 1018.7
20260505182516 19 225 6.4 19.3 0.00 0.66 0.36 53 1018.8
20260505181516 19 248 12.9 22.5 0.00 0.66 0.36 54 1019.1
20260505180516 19 225 11.3 22.5 0.03 0.66 0.36 54 1018.9
20260505175516 19 248 11.3 27.4 0.03 0.66 0.36 54 1018.8
20260505174516 18 248 12.9 20.9 0.03 0.66 0.36 56 1018.9
20260505173516 18 248 8.0 20.9 0.03 0.66 0.36 57 1019.0
20260505172515 18 248 12.9 25.7 0.03 0.66 0.36 56 1019.0
20260505171516 18 225 8.0 19.3 0.03 0.66 0.36 60 1019.0
20260505170516 18 225 6.4 16.1 0.00 0.64 0.33 60 1019.0
20260505165515 17 225 8.0 17.7 0.00 0.64 0.33 62 1018.9
20260505164515 17 225 3.2 9.7 0.00 0.64 0.33 68 1018.8
20260505163515 16 248 6.4 14.5 0.00 0.64 0.33 68 1018.7
20260505162515 16 225 6.4 20.9 0.00 0.64 0.33 68 1018.5
20260505161515 16 225 8.0 17.7 0.00 0.64 0.33 67 1018.3
20260505160517 16 135 4.8 12.9 0.00 0.64 0.33 68 1018.5
20260505152517 15 248 4.8 11.3 0.00 0.64 0.33 72 1018.0
20260505151517 15 270 8.0 11.3 0.00 0.64 0.33 71 1017.9
20260505150517 15 225 3.2 6.4 0.00 0.64 0.33 70 1017.8
20260505140518 15 90 6.4 11.3 0.00 0.64 0.33 73 1018.2
20260505124517 14 135 4.8 9.7 0.03 0.61 0.30 74 1017.5
20260505123517 14 135 3.2 9.7 0.03 0.61 0.30 75 1017.3
20260505122517 14 90 8.0 14.5 0.03 0.61 0.30 76 1017.1
20260505121517 13 158 3.2 9.7 0.05 0.61 0.30 77 1017.3
20260505120517 13 45 3.2 9.7 0.05 0.61 0.30 80 1017.0
20260505115517 13 0.0 1.6 0.03 0.58 0.28 81 1017.9
20260505114517 13 225 1.6 6.4 0.03 0.58 0.28 77 1018.0
20260505113517 13 293 1.6 6.4 0.03 0.58 0.28 75 1018.1
20260505112517 14 225 1.6 4.8 0.03 0.58 0.28 75 1018.7
20260505111517 14 248 1.6 6.4 0.00 0.56 0.25 75 1018.8
20260505110517 14 0.0 1.6 0.03 0.56 0.25 79 1018.3
20260505101517 13 90 3.2 6.4 0.10 0.56 0.25 76 1019.4
20260505100517 13 90 4.8 9.7 0.08 0.53 0.23 76 1019.7
20260505095517 14 90 3.2 6.4 0.05 0.51 0.20 78 1020.0
20260505094517 14 90 6.4 11.3 0.05 0.48 0.18 77 1020.2
20260505093517 14 90 8.0 14.5 0.05 0.48 0.18 78 1020.2
20260505092517 13 90 6.4 12.9 0.05 0.48 0.18 80 1020.4
20260505091517 14 90 6.4 14.5 0.05 0.46 0.15 80 1020.9
20260505090517 13 90 6.4 11.3 0.10 0.46 0.15 81 1020.8
20260505085517 13 113 3.2 9.7 0.13 0.46 0.15 81 1021.0
20260505084517 14 90 6.4 12.9 0.10 0.43 0.13 81 1021.3
20260505083516 13 113 6.4 12.9 0.13 0.43 0.13 81 1021.2
20260505082516 14 90 6.4 11.3 0.10 0.41 0.10 80 1021.6